<?xml version="1.0" encoding="UTF-8" standalone="no" ?>
<gpx xmlns="http://www.topografix.com/GPX/1/1" xmlns:xsi="http://www.w3.org/2001/XMLSchema-instance" xsi:schemaLocation="http://www.topografix.com/GPX/1/1 http://www.topografix.com/GPX/1/1/gpx.xsd" version="1.1" creator="VisuGPX - https://www.visugpx.com">
  <metadata>
    <name>Villiers le Bacle</name>
    <desc><![CDATA[Randonnée familiale à la limite de l\'Essonne et des Yvelines]]></desc>
  </metadata>
  <trk>
    <name><![CDATA[track]]></name>
    <trkseg>
      <trkpt lat="48.72602" lon="2.12627">
        <ele>152</ele>
        <time>2007-11-28T17:34:48Z</time>
      </trkpt>
      <trkpt lat="48.72564" lon="2.12552">
        <ele>150</ele>
        <time>2007-11-28T17:34:48Z</time>
      </trkpt>
      <trkpt lat="48.72654" lon="2.12324">
        <ele>151</ele>
        <time>2007-11-28T17:34:48Z</time>
      </trkpt>
      <trkpt lat="48.72698" lon="2.1211">
        <ele>151</ele>
        <time>2007-11-28T17:34:48Z</time>
      </trkpt>
      <trkpt lat="48.72747" lon="2.12001">
        <ele>149</ele>
        <time>2007-11-28T17:34:48Z</time>
      </trkpt>
      <trkpt lat="48.72745" lon="2.11926">
        <ele>148</ele>
        <time>2007-11-28T17:34:48Z</time>
      </trkpt>
      <trkpt lat="48.72713" lon="2.11913">
        <ele>147</ele>
        <time>2007-11-28T17:34:48Z</time>
      </trkpt>
      <trkpt lat="48.72758" lon="2.11566">
        <ele>152</ele>
        <time>2007-11-28T17:34:48Z</time>
      </trkpt>
      <trkpt lat="48.72589" lon="2.11428">
        <ele>153</ele>
        <time>2007-11-28T17:34:48Z</time>
      </trkpt>
      <trkpt lat="48.72613" lon="2.11203">
        <ele>146</ele>
        <time>2007-11-28T17:34:48Z</time>
      </trkpt>
      <trkpt lat="48.72557" lon="2.11177">
        <ele>131</ele>
        <time>2007-11-28T17:34:48Z</time>
      </trkpt>
      <trkpt lat="48.7266" lon="2.11023">
        <ele>119</ele>
        <time>2007-11-28T17:34:48Z</time>
      </trkpt>
      <trkpt lat="48.7277" lon="2.10829">
        <ele>99</ele>
        <time>2007-11-28T17:34:48Z</time>
      </trkpt>
      <trkpt lat="48.73068" lon="2.10227">
        <ele>133</ele>
        <time>2007-11-28T17:34:48Z</time>
      </trkpt>
      <trkpt lat="48.73139" lon="2.10226">
        <ele>145</ele>
        <time>2007-11-28T17:34:48Z</time>
      </trkpt>
      <trkpt lat="48.73212" lon="2.10304">
        <ele>154</ele>
        <time>2007-11-28T17:34:48Z</time>
      </trkpt>
      <trkpt lat="48.7318" lon="2.10145">
        <ele>146</ele>
        <time>2007-11-28T17:34:48Z</time>
      </trkpt>
      <trkpt lat="48.73191" lon="2.09971">
        <ele>136</ele>
        <time>2007-11-28T17:34:48Z</time>
      </trkpt>
      <trkpt lat="48.73304" lon="2.0958">
        <ele>122</ele>
        <time>2007-11-28T17:34:48Z</time>
      </trkpt>
      <trkpt lat="48.73266" lon="2.09424">
        <ele>113</ele>
        <time>2007-11-28T17:34:48Z</time>
      </trkpt>
      <trkpt lat="48.73288" lon="2.09363">
        <ele>110</ele>
        <time>2007-11-28T17:34:48Z</time>
      </trkpt>
      <trkpt lat="48.73342" lon="2.09322">
        <ele>109</ele>
        <time>2007-11-28T17:34:48Z</time>
      </trkpt>
      <trkpt lat="48.73344" lon="2.09288">
        <ele>109</ele>
        <time>2007-11-28T17:34:48Z</time>
      </trkpt>
      <trkpt lat="48.73248" lon="2.09322">
        <ele>104</ele>
        <time>2007-11-28T17:34:48Z</time>
      </trkpt>
      <trkpt lat="48.73199" lon="2.09489">
        <ele>102</ele>
        <time>2007-11-28T17:34:48Z</time>
      </trkpt>
      <trkpt lat="48.73226" lon="2.09536">
        <ele>106</ele>
        <time>2007-11-28T17:34:48Z</time>
      </trkpt>
      <trkpt lat="48.73161" lon="2.09676">
        <ele>106</ele>
        <time>2007-11-28T17:34:48Z</time>
      </trkpt>
      <trkpt lat="48.73152" lon="2.09808">
        <ele>109</ele>
        <time>2007-11-28T17:34:48Z</time>
      </trkpt>
      <trkpt lat="48.73101" lon="2.09938">
        <ele>108</ele>
        <time>2007-11-28T17:34:48Z</time>
      </trkpt>
      <trkpt lat="48.73018" lon="2.1005">
        <ele>103</ele>
        <time>2007-11-28T17:34:48Z</time>
      </trkpt>
      <trkpt lat="48.72743" lon="2.09804">
        <ele>108</ele>
        <time>2007-11-28T17:34:48Z</time>
      </trkpt>
      <trkpt lat="48.72729" lon="2.09647">
        <ele>116</ele>
        <time>2007-11-28T17:34:48Z</time>
      </trkpt>
      <trkpt lat="48.72617" lon="2.09886">
        <ele>131</ele>
        <time>2007-11-28T17:34:48Z</time>
      </trkpt>
      <trkpt lat="48.72469" lon="2.09744">
        <ele>156</ele>
        <time>2007-11-28T17:34:48Z</time>
      </trkpt>
      <trkpt lat="48.72409" lon="2.10077">
        <ele>158</ele>
        <time>2007-11-28T17:34:48Z</time>
      </trkpt>
      <trkpt lat="48.72286" lon="2.10414">
        <ele>153</ele>
        <time>2007-11-28T17:34:48Z</time>
      </trkpt>
      <trkpt lat="48.71958" lon="2.10687">
        <ele>150</ele>
        <time>2007-11-28T17:34:48Z</time>
      </trkpt>
      <trkpt lat="48.71864" lon="2.10704">
        <ele>157</ele>
        <time>2007-11-28T17:34:48Z</time>
      </trkpt>
      <trkpt lat="48.71765" lon="2.10762">
        <ele>160</ele>
        <time>2007-11-28T17:34:48Z</time>
      </trkpt>
      <trkpt lat="48.7157" lon="2.10994">
        <ele>151</ele>
        <time>2007-11-28T17:34:48Z</time>
      </trkpt>
      <trkpt lat="48.71471" lon="2.11011">
        <ele>128</ele>
        <time>2007-11-28T17:34:48Z</time>
      </trkpt>
      <trkpt lat="48.7149" lon="2.11297">
        <ele>132</ele>
        <time>2007-11-28T17:34:48Z</time>
      </trkpt>
      <trkpt lat="48.71416" lon="2.1144">
        <ele>109</ele>
        <time>2007-11-28T17:34:48Z</time>
      </trkpt>
      <trkpt lat="48.71502" lon="2.11799">
        <ele>92</ele>
        <time>2007-11-28T17:34:48Z</time>
      </trkpt>
      <trkpt lat="48.71633" lon="2.1185">
        <ele>95</ele>
        <time>2007-11-28T17:34:48Z</time>
      </trkpt>
      <trkpt lat="48.71768" lon="2.12043">
        <ele>83</ele>
        <time>2007-11-28T17:34:48Z</time>
      </trkpt>
      <trkpt lat="48.72062" lon="2.12245">
        <ele>91</ele>
        <time>2007-11-28T17:34:48Z</time>
      </trkpt>
      <trkpt lat="48.72224" lon="2.12251">
        <ele>98</ele>
        <time>2007-11-28T17:34:48Z</time>
      </trkpt>
      <trkpt lat="48.72285" lon="2.12299">
        <ele>105</ele>
        <time>2007-11-28T17:34:48Z</time>
      </trkpt>
      <trkpt lat="48.72335" lon="2.12414">
        <ele>103</ele>
        <time>2007-11-28T17:34:48Z</time>
      </trkpt>
      <trkpt lat="48.72503" lon="2.12315">
        <ele>119</ele>
        <time>2007-11-28T17:34:48Z</time>
      </trkpt>
      <trkpt lat="48.72572" lon="2.121">
        <ele>132</ele>
        <time>2007-11-28T17:34:48Z</time>
      </trkpt>
      <trkpt lat="48.72691" lon="2.11913">
        <ele>147</ele>
        <time>2007-11-28T17:34:48Z</time>
      </trkpt>
      <trkpt lat="48.72745" lon="2.11926">
        <ele>148</ele>
        <time>2007-11-28T17:34:48Z</time>
      </trkpt>
      <trkpt lat="48.72747" lon="2.12001">
        <ele>149</ele>
        <time>2007-11-28T17:34:48Z</time>
      </trkpt>
      <trkpt lat="48.72698" lon="2.1211">
        <ele>151</ele>
        <time>2007-11-28T17:34:48Z</time>
      </trkpt>
      <trkpt lat="48.72642" lon="2.12311">
        <ele>149</ele>
        <time>2007-11-28T17:34:48Z</time>
      </trkpt>
      <trkpt lat="48.7256" lon="2.12532">
        <ele>150</ele>
        <time>2007-11-28T17:34:48Z</time>
      </trkpt>
      <trkpt lat="48.72602" lon="2.12627">
        <ele>152</ele>
        <time>2007-11-28T17:34:48Z</time>
      </trkpt>
    </trkseg>
  </trk>
</gpx>